Weather History for Spokane Felts, WA

Change the Weather History Date:

Friday, September 14, 2012

  Actual Average Record
Temperature  
Mean Temperature 65 °F 61 °F  
Max Temperature 85 °F 76 °F 93 °F (2013)
Min Temperature 44 °F 47 °F 41 °F (2014)
Degree Days  
Heating Degree Days 0 5  
Month to date heating degree days 39 46  
Since 1 July heating degree days 59 92  
Cooling Degree Days 0 1  
Month to date cooling degree days 9 24  
Year to date cooling degree days 504 400  
Growing Degree Days 14 (Base 50)    
Moisture  
Dew Point 38 °F    
Average Humidity 49    
Maximum Humidity 83    
Minimum Humidity 14    
Precipitation  
Precipitation 0.00 in 0.03 in 0.01 in (2004)
Month to date precipitation T 0.35  
Year to date precipitation 13.87 11.09  
Sea Level Pressure  
Sea Level Pressure 30.08 in    
Wind  
Wind Speed 2 mph (NE)    
Max Wind Speed 7 mph    
Max Gust Speed 9 mph    
Visibility 8 miles    
Events      
T = Trace of Precipitation, MM = Missing Value Source: NWS Daily Summary

Daily Weather History Graph

Daily Weather History Graph

Search for Another Location

Airport:

Trip Planner

Search our weather history database for the weather conditions in past years. The results will help you decide how hot, cold, wet, or windy it might be!

Date:

Astronomy

Sep. 14, 2012 Rise Set
Actual Time 6:26 AM PDT 7:02 PM PDT
Civil Twilight 5:54 AM PDT 7:33 PM PDT
Nautical Twilight 5:17 AM PDT 8:10 PM PDT
Astronomical Twilight 4:39 AM PDT 8:48 PM PDT
Moon 4:52 AM PDT (9/14) 6:01 PM PDT (9/14)
Length of Visible Light 13h 38m
Length of Day
12h 36m
Waning Crescent, 2% of the Moon is Illuminated
Sep 14
Waning Crescent
Sep 15
New
Sep 22
First Quarter
Sep 29
Full
Oct 8
Last Quarter

Hourly Weather History & Observations

Time (PDT) Temp. Windchill Dew Point Humidity Pressure Visibility Wind Dir Wind Speed Gust Speed Precip Events Conditions
12:53 AM 52.0 °F - 39.9 °F 63% 30.17 in 10.0 mi NNE 3.5 mph - N/A   Clear
1:53 AM 48.9 °F - 41.0 °F 74% 30.18 in 10.0 mi NNE 3.5 mph - N/A   Clear
2:53 AM 48.9 °F - 39.9 °F 71% 30.16 in 10.0 mi NE 3.5 mph - N/A   Clear
3:53 AM 48.0 °F - 39.9 °F 74% 30.15 in 10.0 mi Calm Calm - N/A   Clear
4:53 AM 46.0 °F 44.8 °F 39.9 °F 79% 30.15 in 10.0 mi NNE 3.5 mph - N/A   Clear
5:53 AM 46.0 °F 44.8 °F 39.9 °F 79% 30.15 in 10.0 mi NNE 3.5 mph - N/A   Clear
6:53 AM 45.0 °F 43.5 °F 39.0 °F 80% 30.16 in 10.0 mi NE 3.5 mph - N/A   Clear
7:53 AM 51.1 °F - 42.1 °F 71% 30.15 in 10.0 mi NE 3.5 mph - N/A   Clear
8:53 AM 57.0 °F - 43.0 °F 59% 30.16 in 10.0 mi Calm Calm - N/A   Clear
9:53 AM 62.1 °F - 42.1 °F 48% 30.14 in 10.0 mi Variable 3.5 mph - N/A   Clear
10:53 AM 66.0 °F - 41.0 °F 40% 30.12 in 10.0 mi Calm Calm - N/A   Clear
11:53 AM 72.0 °F - 41.0 °F 33% 30.10 in 10.0 mi Calm Calm - N/A   Clear
12:53 PM 75.0 °F - 41.0 °F 29% 30.08 in 10.0 mi Variable 3.5 mph - N/A   Clear
1:53 PM 78.1 °F - 36.0 °F 22% 30.06 in 7.0 mi Calm Calm - N/A   Clear
2:53 PM 81.0 °F - 36.0 °F 20% 30.03 in 5.0 mi Calm Calm - N/A   Smoke
3:53 PM 82.9 °F - 30.0 °F 15% 30.00 in 5.0 mi Calm Calm - N/A   Smoke
4:53 PM 84.9 °F - 30.0 °F 14% 29.98 in 5.0 mi Calm Calm - N/A   Smoke
5:53 PM 82.0 °F - 32.0 °F 16% 29.97 in 5.0 mi NE 3.5 mph - N/A   Smoke
6:53 PM 71.1 °F - 33.1 °F 25% 29.97 in 5.0 mi Calm Calm - N/A   Smoke
7:53 PM 66.0 °F - 37.0 °F 34% 29.99 in 6.0 mi Calm Calm - N/A   Smoke
8:53 PM 60.1 °F - 41.0 °F 49% 29.99 in 6.0 mi NNE 4.6 mph - N/A   Smoke
9:53 PM 62.1 °F - 30.9 °F 31% 29.99 in 7.0 mi NE 4.6 mph - N/A   Smoke
10:53 PM 55.9 °F - 37.0 °F 49% 30.00 in 6.0 mi Calm Calm - N/A   Smoke
11:53 PM 55.9 °F - 37.0 °F 49% 30.00 in 6.0 mi ENE 3.5 mph - N/A   Smoke